Concord, CA

8:18 AM PST on December 16, 2017 (GMT -0800)
Buchanan

Weather History for KCCR - October, 2012

Change the Weather History Date:

Friday, October 26, 2012

  Actual Average Record
Temperature  
Mean Temperature 59 °F 61 °F  
Max Temperature 75 °F 73 °F 92 °F (2017)
Min Temperature 43 °F 49 °F 42 °F (2011)
Degree Days  
Heating Degree Days 6    
Month to date heating degree days 76  
Since 1 July heating degree days 88  
Cooling Degree Days 0    
Month to date cooling degree days 64  
Year to date cooling degree days 790  
Growing Degree Days 8 (Base 50)    
Moisture  
Dew Point 40 °F    
Average Humidity 56    
Maximum Humidity 93    
Minimum Humidity 19    
Precipitation  
Precipitation 0.01 in - 1.74 in (1991)
Month to date precipitation 0.96  
Year to date precipitation 10.63  
Since 1 July precipitation 0.96  
Sea Level Pressure  
Sea Level Pressure 30.13 in    
Wind  
Wind Speed 2 mph (South)    
Max Wind Speed 9 mph    
Max Gust Speed 22 mph    
Visibility 10 miles    
Events      
T = Trace of Precipitation, MM = Missing Value Source: NWS Daily Summary

Daily Weather History Graph

Daily Weather History Graph

Search for Another Location

Airport or City:

Trip Planner

Search our weather history database for the weather conditions in past years. The results will help you decide how hot, cold, wet, or windy it might be!

Date:

Astronomy

Oct. 26, 2012 Rise Set
Actual Time 7:28 AM PDT 6:15 PM PDT
Civil Twilight 7:01 AM PDT 6:42 PM PDT
Nautical Twilight 6:30 AM PDT 7:13 PM PDT
Astronomical Twilight 5:59 AM PDT 7:43 PM PDT
Moon 4:32 PM PDT (10/26) 4:32 AM PDT (10/26)
Length of Visible Light 11h 41m
Length of Day
10h 47m
Waxing Gibbous, 91% of the Moon is Illuminated
Oct 26
Waxing Gibbous
Oct 29
Full
Nov 6
Last Quarter
Nov 13
New
Nov 20
First Quarter

Hourly Weather History & Observations

Time (PDT) Temp. Windchill Dew Point Humidity Pressure Visibility Wind Dir Wind Speed Gust Speed Precip Events Conditions
12:53 AM 48.0 °F - 44.1 °F 86% 30.19 in 10.0 mi Calm Calm - N/A   Clear
1:53 AM 46.9 °F - 44.1 °F 90% 30.19 in 10.0 mi SE 3.5 mph - N/A   Clear
2:53 AM 46.0 °F 44.8 °F 43.0 °F 89% 30.19 in 10.0 mi South 3.5 mph - N/A   Clear
3:53 AM 44.1 °F 42.5 °F 42.1 °F 93% 30.18 in 10.0 mi South 3.5 mph - N/A   Clear
4:53 AM 45.0 °F 43.5 °F 42.1 °F 90% 30.17 in 10.0 mi SE 3.5 mph - N/A   Clear
6:53 AM 44.1 °F - 39.9 °F 85% 30.18 in 10.0 mi Calm Calm - 0.01 in   Clear
7:53 AM 44.1 °F 40.1 °F 39.9 °F 85% 30.18 in 10.0 mi SSE 6.9 mph - N/A   Clear
9:53 AM 57.0 °F - 39.9 °F 53% 30.20 in 10.0 mi Calm Calm - N/A   Clear
10:53 AM 63.0 °F - 35.1 °F 35% 30.19 in 10.0 mi Calm Calm - N/A   Clear
11:53 AM 66.0 °F - 34.0 °F 30% 30.18 in 10.0 mi Calm Calm - N/A   Clear
12:53 PM 69.1 °F - 34.0 °F 27% 30.15 in 10.0 mi Calm Calm - N/A   Clear
1:53 PM 71.1 °F - 34.0 °F 26% 30.11 in 10.0 mi Calm Calm - N/A   Clear
2:53 PM 73.0 °F - 32.0 °F 22% 30.09 in 10.0 mi Variable 4.6 mph - N/A   Clear
3:53 PM 73.9 °F - 28.9 °F 19% 30.07 in 10.0 mi West 6.9 mph - N/A   Clear
4:53 PM 73.9 °F - 36.0 °F 25% 30.06 in 10.0 mi West 8.1 mph - N/A   Clear
5:53 PM 71.1 °F - 42.1 °F 35% 30.06 in 10.0 mi Variable 4.6 mph - N/A   Clear
7:53 PM 62.1 °F - 46.0 °F 56% 30.06 in 10.0 mi Calm Calm - N/A   Clear
8:53 PM 61.0 °F - 46.9 °F 60% 30.06 in 10.0 mi Calm Calm - N/A   Clear
9:53 PM 59.0 °F - 46.0 °F 62% 30.06 in 10.0 mi Calm Calm - N/A   Clear
10:53 PM 57.0 °F - 46.9 °F 69% 30.06 in 10.0 mi Calm Calm - N/A   Clear
11:53 PM 55.9 °F - 46.0 °F 69% 30.06 in 10.0 mi Calm Calm - N/A   Clear